This demonstration page uses our WeatherBlox Daily Observations layout. Learn more.

Left ArrowRight Arrow

44.89941, -97.11507

Hourly Observations for June 29, 2016

Temp ( °F °C ) Dew Point ( °F °C ) Humidity (%) Winds ( mph kmh ) Pressure ( in mb ) Visibility ( mi km ) Precip ( " mm )
12:53 am 00:53 Clear 65 18.3 52 11.1 63 63 ESE 6 9 30.11 1020 10 16 0.00 0.00
1:53 am 01:53 Clear 64 17.8 52 11.1 65 65 SE 6 9 30.10 1019 10 16 0.00 0.00
2:53 am 02:53 Clear 63 17.2 52 11.1 68 68 SE 5 7 30.10 1019 10 16 0.00 0.00
3:53 am 03:53 Clear 62 16.7 51 10.6 67 67 ESE 6 9 30.09 1019 10 16 0.00 0.00
4:53 am 04:53 Clear 61 16.1 51 10.6 70 70 SE 5 7 30.09 1019 10 16 0.00 0.00
5:53 am 05:53 Sunny 60 15.6 51 10.6 72 72 SSE 5 7 30.09 1019 10 16 0.00 0.00
6:53 am 06:53 Sunny 63 17.2 53 11.7 70 70 SE 6 9 30.09 1019 10 16 0.00 0.00
7:53 am 07:53 Sunny 65 18.3 54 12.2 68 68 SSE 9 15 30.08 1019 10 16 0.00 0.00
8:53 am 08:53 Sunny 69 20.6 57 13.9 66 66 SE 3 6 30.07 1018 10 16 0.00 0.00
9:53 am 09:53 Sunny 73 22.8 58 14.4 59 59 SSE 6 9 30.08 1019 10 16 0.00 0.00
10:53 am 10:53 Sunny 76 24.4 57 13.9 52 52 VRB 3 6 30.06 1018 10 16 0.00 0.00
11:53 am 11:53 Sunny 78 25.6 54 12.2 43 43 VRB 6 9 30.05 1018 10 16 0.00 0.00
12:53 pm 12:53 Sunny 79 26.1 53 11.7 41 41 Calm 30.05 1018 10 16 0.00 0.00
1:53 pm 13:53 Mostly Sunny 83 28.3 54 12.2 37 37 S 8 13 30.03 1017 10 16 0.00 0.00
2:53 pm 14:53 Cloudy 83 28.3 52 11.1 34 34 VRB 3 6 30.01 1016 10 16 0.00 0.00
3:53 pm 15:53 Sunny 84 28.9 52 11.1 33 33 W 9 15 29.99 1016 10 16 0.00 0.00
4:53 pm 16:53 Mostly Sunny 84 28.9 51 10.6 32 32 SSW 7 11 29.97 1015 10 16 0.00 0.00
5:53 pm 17:53 Sunny 84 28.9 48 8.9 29 29 Calm 29.97 1015 10 16 0.00 0.00
6:53 pm 18:53 Sunny 82 27.8 49 9.4 32 32 NW 7 11 29.96 1014 10 16 0.00 0.00
7:53 pm 19:53 Sunny 82 27.8 49 9.4 32 32 N 6 9 29.95 1014 10 16 0.00 0.00
8:53 pm 20:53 Sunny 74 23.3 50 10 43 43 N 5 7 29.96 1014 10 16 0.00 0.00
9:53 pm 21:53 Clear 69 20.6 51 10.6 53 53 N 5 7 29.96 1015 10 16 0.00 0.00
10:53 pm 22:53 Mostly Cloudy 68 20 55 12.8 63 63 N 3 6 29.98 1015 10 16 0.00 0.00
11:53 pm 23:53 Mostly Clear 64 17.8 55 12.8 73 73 Calm 29.97 1015 10 16 0.00 0.00

Powered by AerisWeather